Camp Douglas, WI

4:02 PM CST on February 10, 2016 (GMT -0600)
Volk

Weather History for KVOK - May, 2014

Change the Weather History Date:

Thursday, May 15, 2014

  Actual Average Record
Temperature  
Mean Temperature 48 °F -  
Max Temperature 55 °F 64 °F 88 °F (2001)
Min Temperature 40 °F 49 °F 33 °F (2004)
Degree Days  
Heating Degree Days 16    
Moisture  
Dew Point 31 °F    
Average Humidity 51    
Maximum Humidity 70    
Minimum Humidity 38    
Precipitation  
Precipitation 0.00 in - - ()
Sea Level Pressure  
Sea Level Pressure 30.06 in    
Wind  
Wind Speed 8 mph (North)    
Max Wind Speed 14 mph    
Max Gust Speed 21 mph    
Visibility 10 miles    
Events      
Averages and records for this station are not official NWS values.
T = Trace of Precipitation, MM = Missing Value Source: NWS Daily Summary

Daily Weather History Graph

Daily Weather History Graph

Search for Another Location

Airport or City:

Trip Planner

Search our weather history database for the weather conditions in past years. The results will help you decide how hot, cold, wet, or windy it might be!

Date:

Astronomy

May. 15, 2014 Rise Set
Actual Time 5:35 AM CDT 8:20 PM CDT
Civil Twilight 5:01 AM CDT 8:53 PM CDT
Nautical Twilight 4:19 AM CDT 9:36 PM CDT
Astronomical Twilight 3:31 AM CDT 10:25 PM CDT
Moon 9:28 PM CDT (5/15) 6:22 AM CDT (5/15)
Length of Visible Light 15h 51m
Length of Day
14h 45m
Full, 99% of the Moon is Illuminated
May 15
Full
May 21
Last Quarter
May 28
New
Jun 5
First Quarter
Jun 12
Full

Hourly Weather History & Observations

Time (CDT) Temp. Windchill Dew Point Humidity Pressure Visibility Wind Dir Wind Speed Gust Speed Precip Events Conditions
12:58 AM 49.1 °F - 31.5 °F 51% 30.07 in 10.0 mi North 4.6 mph - N/A   Clear
1:58 AM 49.5 °F - 30.7 °F 49% 30.06 in 10.0 mi NNE 11.5 mph - N/A   Overcast
2:58 AM 48.4 °F - 35.2 °F 60% 30.07 in 10.0 mi ENE 12.7 mph - N/A   Partly Cloudy
3:58 AM 46.8 °F - 32.5 °F 58% 30.07 in 10.0 mi ENE 8.1 mph 19.6 mph N/A   Clear
4:58 AM 44.6 °F 43.1 °F 33.1 °F 64% 30.06 in 10.0 mi East 3.5 mph - N/A   Overcast
5:58 AM 43.9 °F 40.5 °F 33.3 °F 66% 30.06 in 10.0 mi ENE 5.8 mph - N/A   Mostly Cloudy
6:58 AM 42.8 °F 40.1 °F 33.8 °F 70% 30.07 in 10.0 mi ENE 4.6 mph - N/A   Overcast
7:58 AM 44.6 °F 40.7 °F 33.8 °F 66% 30.07 in 10.0 mi NE 6.9 mph - N/A   Overcast
8:58 AM 46.4 °F 44.3 °F 33.8 °F 62% 30.07 in 10.0 mi NNE 4.6 mph - N/A   Mostly Cloudy
9:58 AM 50.0 °F - 33.8 °F 54% 30.06 in 10.0 mi North 6.9 mph - N/A   Mostly Cloudy
10:58 AM 50.0 °F - 33.8 °F 54% 30.05 in 10.0 mi WNW 6.9 mph - N/A   Mostly Cloudy
11:58 AM 51.8 °F - 32.0 °F 47% 30.04 in 10.0 mi NNW 9.2 mph - N/A   Mostly Cloudy
12:58 PM 53.6 °F - 28.4 °F 38% 30.03 in 10.0 mi NW 13.8 mph - N/A   Mostly Cloudy
2:17 PM 55.4 °F - 30.2 °F 38% 30.00 in 10.0 mi NW 12.7 mph 18.4 mph N/A   Mostly Cloudy
2:58 PM 53.6 °F - 28.4 °F 38% 30.02 in 10.0 mi NNW 13.8 mph - N/A   Overcast
3:58 PM 51.8 °F - 28.4 °F 41% 30.02 in 10.0 mi North 11.5 mph - N/A   Overcast
4:58 PM 51.8 °F - 30.2 °F 44% 30.02 in 10.0 mi NNW 10.4 mph - N/A   Mostly Cloudy
5:58 PM 53.6 °F - 30.2 °F 41% 30.02 in 10.0 mi North 11.5 mph 20.7 mph N/A   Mostly Cloudy
6:58 PM 50.4 °F - 28.8 °F 43% 30.05 in 10.0 mi North 10.4 mph - N/A   Scattered Clouds
7:58 PM 48.2 °F - 28.4 °F 46% 30.07 in 10.0 mi North 9.2 mph - N/A   Mostly Cloudy
8:58 PM 46.4 °F 40.7 °F 26.6 °F 46% 30.08 in 10.0 mi North 12.7 mph - N/A   Mostly Cloudy
9:58 PM 44.6 °F 39.2 °F 28.4 °F 53% 30.09 in 10.0 mi North 10.4 mph - N/A   Mostly Cloudy
10:58 PM 42.8 °F 38.6 °F 24.8 °F 49% 30.10 in 10.0 mi NNE 6.9 mph - N/A   Overcast
11:58 PM 40.3 °F - 26.2 °F 57% 30.10 in 10.0 mi North 2.3 mph - N/A   Overcast